DW3930 Weather Reports


Display with metric or nautical units.
time (UTC)temp
F
wind
direction
speed
MPH
gust
MPH
rain 1hr
in
rain 24hr
in
rain mn
in
humidity
%
barometer
mb
20260510174526 56 359 5.0 16.0 0.00 0.18 0.00 52 1350.5
20260510174510 56 359 5.0 16.0 0.00 0.18 0.00 37 1017.5
20260510174011 56 356 5.0 16.0 0.00 0.18 0.00 37 1017.5
20260510174004 56 356 5.0 19.0 0.00 0.18 0.00 52 1350.6
20260510173511 56 14 5.0 16.0 0.00 0.18 0.00 38 1017.5
20260510173505 56 15 5.0 12.0 0.00 0.18 0.00 31 1350.6
20260510173011 56 26 5.0 16.0 0.00 0.18 0.00 35 1017.6
20260510173004 56 26 6.0 16.0 0.00 0.18 0.00 50 1350.7
20260510172511 56 17 5.0 15.0 0.00 0.18 0.00 35 1017.5
20260510172504 56 15 5.0 16.0 0.00 0.18 0.00 51 1350.7
20260510172004 56 360 5.0 13.0 0.00 0.18 0.00 53 1350.8
20260510171510 55 342 7.0 13.0 0.00 0.18 0.00 38 1017.5
20260510171505 55 339 6.0 13.0 0.00 0.18 0.00 52 1350.7
20260510171011 55 327 7.0 13.0 0.00 0.18 0.00 35 1017.5
20260510171004 55 327 6.0 16.0 0.00 0.18 0.00 51 1350.7
20260510170511 55 347 5.0 12.0 0.00 0.18 0.00 37 1017.5
20260510170504 55 348 5.0 12.0 0.00 0.18 0.00 52 1350.7
20260510170011 55 1 5.0 12.0 0.00 0.18 0.00 38 1017.6
20260510170004 55 360 5.0 12.0 0.00 0.18 0.00 31 1350.7
20260510165510 55 1 5.0 13.0 0.00 0.18 0.00 39 1017.4
20260510165504 55 360 5.0 13.0 0.00 0.18 0.00 55 1350.6
20260510165011 55 1 5.0 13.0 0.00 0.18 0.00 37 1017.5
20260510165004 55 360 6.0 15.0 0.00 0.18 0.00 52 1350.5
20260510164525 55 360 6.0 13.0 0.00 0.18 0.00 53 1350.6
20260510164510 55 1 5.0 15.0 0.00 0.18 0.00 38 1017.4
20260510164011 54 1 7.0 17.0 0.00 0.18 0.00 39 1017.3
20260510164004 54 360 7.0 13.0 0.00 0.18 0.00 55 1350.5
20260510163510 54 1 7.0 17.0 0.00 0.18 0.00 37 1017.2
20260510163504 54 360 7.0 19.0 0.00 0.18 0.00 30 1350.4
20260510163025 55 360 7.0 15.0 0.00 0.18 0.00 52 1350.2
20260510163012 54 1 7.0 19.0 0.00 0.18 0.00 37 1017.1
20260510162511 55 1 7.0 19.0 0.00 0.18 0.00 38 1017.2
20260510162504 55 360 6.0 19.0 0.00 0.18 0.00 52 1350.3
20260510162004 55 360 5.0 8.0 0.00 0.18 0.00 55 1350.1
20260510161511 54 1 7.0 15.0 0.00 0.18 0.00 41 1017.1
20260510161504 55 360 7.0 13.0 0.00 0.18 0.00 56 1350.0
20260510161005 55 360 6.0 19.0 0.00 0.18 0.00 52 1350.1
20260510160525 55 360 5.0 12.0 0.00 0.18 0.00 55 1349.9
20260510160513 55 1 5.0 13.0 0.00 0.18 0.00 39 1016.9
20260510160012 54 1 5.0 13.0 0.00 0.18 0.00 38 1016.9
20260510160004 54 360 5.0 13.0 0.00 0.18 0.00 53 1349.9
20260510155525 54 360 5.0 13.0 0.00 0.18 0.00 56 1349.9
20260510155511 54 1 4.0 13.0 0.00 0.18 0.00 41 1016.9
20260510155025 54 360 5.0 12.0 0.00 0.18 0.00 55 1349.8
20260510155011 54 1 5.0 15.0 0.00 0.18 0.00 39 1016.9
20260510154526 54 360 6.0 16.0 0.00 0.18 0.00 53 1349.9
20260510154511 54 1 5.0 15.0 0.00 0.18 0.00 38 1017.0
20260510154025 54 360 5.0 15.0 0.00 0.18 0.00 55 1349.8
20260510154012 54 1 5.0 15.0 0.00 0.18 0.00 38 1016.9
20260510153511 54 1 5.0 15.0 0.00 0.18 0.00 39 1016.8
20260510153505 54 360 6.0 16.0 0.00 0.18 0.00 55 1349.7
20260510153004 54 360 5.0 15.0 0.00 0.18 0.00 34 1349.6
20260510152525 54 360 5.0 12.0 0.00 0.18 0.00 55 1349.7
20260510152511 54 1 5.0 12.0 0.00 0.18 0.00 39 1016.7
20260510152010 53 1 5.0 12.0 0.00 0.18 0.00 39 1016.7
20260510152004 54 360 6.0 12.0 0.00 0.18 0.00 55 1349.6
20260510151511 53 1 7.0 19.0 0.00 0.18 0.00 38 1016.7
20260510151504 54 360 6.0 15.0 0.00 0.18 0.00 53 1349.5
20260510151004 54 358 6.0 19.0 0.00 0.18 0.00 52 1349.5
20260510150511 53 352 5.0 15.0 0.00 0.18 0.00 38 1016.6
20260510150504 54 350 6.0 15.0 0.00 0.18 0.00 53 1349.4
20260510150025 54 353 5.0 13.0 0.00 0.18 0.00 55 1349.3
20260510150011 53 354 5.0 13.0 0.00 0.18 0.00 39 1016.5
20260510145525 54 7 5.0 13.0 0.00 0.18 0.00 56 1349.2
20260510145511 53 11 4.0 13.0 0.00 0.18 0.00 41 1016.4
20260510145011 53 7 4.0 11.0 0.00 0.18 0.00 39 1016.3
20260510145004 54 6 4.0 12.0 0.00 0.18 0.00 55 1349.2
20260510144510 53 348 4.0 8.0 0.00 0.18 0.00 39 1016.4
20260510144504 53 348 4.0 11.0 0.00 0.18 0.00 33 1349.1
20260510144025 53 346 3.0 9.0 0.00 0.18 0.00 57 1348.9
20260510144011 53 346 3.0 8.0 0.00 0.18 0.00 42 1016.3
20260510143525 53 348 3.0 7.0 0.00 0.18 0.00 58 1348.9
20260510143511 53 352 4.0 9.0 0.00 0.18 0.00 43 1016.2
20260510143011 53 346 5.0 13.0 0.00 0.18 0.00 43 1016.2
20260510143004 53 345 4.0 11.0 0.00 0.18 0.00 57 1348.9
20260510142511 53 344 4.0 13.0 0.00 0.18 0.00 45 1016.1
20260510142504 53 346 4.0 13.0 0.00 0.18 0.00 60 1348.7
20260510142011 52 357 4.0 9.0 0.00 0.18 0.00 49 1016.1
20260510142004 52 357 4.0 11.0 0.00 0.18 0.00 62 1348.7
20260510141510 52 7 3.0 9.0 0.00 0.18 0.00 49 1016.0
20260510141504 52 7 3.0 11.0 0.00 0.18 0.00 62 1348.6
20260510141011 52 18 3.0 11.0 0.00 0.18 0.00 50 1015.9
20260510141004 52 18 3.0 7.0 0.00 0.18 0.00 63 1348.5
20260510140510 51 340 4.0 12.0 0.00 0.18 0.00 50 1015.9
20260510140505 51 339 4.0 12.0 0.00 0.18 0.00 63 1348.4
20260510140025 51 316 4.0 12.0 0.00 0.18 0.00 64 1348.4
20260510140011 51 320 4.0 12.0 0.00 0.18 0.00 51 1015.9
20260510135510 51 355 4.0 8.0 0.00 0.18 0.00 51 1015.8
20260510135504 51 358 4.0 8.0 0.00 0.18 0.00 64 1348.3
20260510135025 50 355 4.0 7.0 0.00 0.18 0.00 64 1348.1
20260510135011 50 355 4.0 7.0 0.00 0.18 0.00 51 1015.7
20260510134505 50 339 4.0 7.0 0.00 0.18 0.00 64 1348.0
20260510134011 50 356 5.0 12.0 0.00 0.18 0.00 51 1015.5
20260510134004 50 358 4.0 11.0 0.00 0.18 0.00 64 1347.8
20260510133510 49 12 5.0 12.0 0.00 0.18 0.00 51 1015.4
20260510133504 49 10 5.0 12.0 0.00 0.18 0.00 64 1347.8
20260510133011 49 4 5.0 12.0 0.00 0.18 0.00 51 1015.4
20260510133004 49 1 5.0 13.0 0.00 0.18 0.00 64 1347.7
20260510132510 49 359 4.0 12.0 0.00 0.18 0.00 51 1015.4
20260510132504 49 360 4.0 11.0 0.00 0.18 0.00 64 1347.8
20260510132004 49 7 4.0 12.0 0.00 0.18 0.00 66 1347.6
20260510131512 48 10 5.0 12.0 0.00 0.18 0.00 54 1015.4
20260510131504 48 10 4.0 9.0 0.00 0.18 0.00 67 1347.6
20260510131011 48 16 5.0 13.0 0.00 0.18 0.00 53 1015.3
20260510131004 48 15 6.0 12.0 0.00 0.18 0.00 66 1347.7
20260510130510 48 12 7.0 13.0 0.00 0.18 0.00 54 1015.3
20260510130504 48 11 6.0 13.0 0.00 0.18 0.00 67 1347.6
20260510130011 48 9 5.0 13.0 0.00 0.18 0.00 54 1015.3
20260510130004 48 10 6.0 12.0 0.00 0.18 0.00 67 1347.5
20260510125510 47 12 5.0 13.0 0.00 0.18 0.00 57 1015.2
20260510125504 48 12 6.0 13.0 0.00 0.18 0.00 69 1347.4
20260510125012 47 5 5.0 13.0 0.00 0.18 0.00 57 1015.1
20260510125004 47 6 5.0 16.0 0.00 0.18 0.00 69 1347.4
20260510124510 47 357 5.0 16.0 0.00 0.18 0.00 58 1015.1
20260510124504 47 357 5.0 11.0 0.00 0.18 0.00 70 1347.2
20260510124011 47 357 5.0 16.0 0.00 0.18 0.00 59 1015.1
20260510124004 47 358 6.0 16.0 0.00 0.18 0.00 71 1347.3
20260510123525 46 1 6.0 15.0 0.00 0.18 0.00 71 1347.2
20260510123510 46 2 7.0 13.0 0.00 0.18 0.00 59 1015.0
20260510123011 46 2 5.0 11.0 0.00 0.18 0.00 61 1014.9
20260510123004 46 3 5.0 12.0 0.00 0.18 0.00 72 1347.1
20260510122526 46 360 5.0 12.0 0.00 0.18 0.00 73 1347.0
20260510122511 46 1 5.0 12.0 0.00 0.18 0.00 62 1014.9
20260510122011 46 3 5.0 12.0 0.00 0.18 0.00 63 1014.8
20260510122004 46 2 6.0 12.0 0.00 0.18 0.00 74 1346.9
20260510121510 45 6 4.0 12.0 0.00 0.18 0.00 65 1014.7
20260510121504 45 5 5.0 12.0 0.00 0.18 0.00 75 1346.9
20260510121011 45 6 4.0 9.0 0.00 0.18 0.00 66 1014.7
20260510121004 45 6 4.0 9.0 0.00 0.18 0.00 77 1346.7
20260510120525 44 7 5.0 12.0 0.00 0.18 0.00 77 1346.7
20260510120025 44 8 5.0 16.0 0.00 0.18 0.00 78 1346.6
20260510120011 44 9 5.0 15.0 0.00 0.18 0.00 67 1014.6
20260510115510 43 12 5.0 13.0 0.00 0.18 0.00 67 1014.5
20260510115504 44 11 5.0 13.0 0.00 0.18 0.00 78 1346.7
20260510115004 43 11 5.0 9.0 0.00 0.18 0.00 79 1346.5
20260510114512 42 11 4.0 11.0 0.00 0.18 0.00 70 1014.5
20260510114504 42 10 5.0 9.0 0.00 0.18 0.00 80 1346.5
20260510114025 42 13 4.0 12.0 0.00 0.18 0.00 81 1346.4
20260510114011 42 14 4.0 11.0 0.00 0.18 0.00 71 1014.4
20260510113510 41 15 3.0 8.0 0.00 0.18 0.00 74 1014.3
20260510113504 41 16 3.0 9.0 0.00 0.18 0.00 83 1346.3
20260510113011 41 14 3.0 5.0 0.00 0.18 0.00 75 1014.2
20260510113004 41 14 3.0 7.0 0.00 0.18 0.00 83 1346.1
20260510112510 40 9 3.0 5.0 0.00 0.18 0.00 75 1014.2
20260510112504 40 8 3.0 5.0 0.00 0.18 0.00 84 1346.1
20260510112011 40 8 1.0 5.0 0.00 0.18 0.00 77 1014.1
20260510112004 40 7 2.0 5.0 0.00 0.18 0.00 85 1346.1
20260510111510 39 8 1.0 4.0 0.00 0.18 0.00 77 1014.0
20260510111504 39 7 1.0 4.0 0.00 0.18 0.00 85 1345.8
20260510111011 38 6 1.0 4.0 0.00 0.18 0.00 77 1013.9
20260510111004 38 5 1.0 4.0 0.00 0.18 0.00 85 1345.8
20260510110510 38 10 1.0 7.0 0.00 0.18 0.00 77 1013.9
20260510110504 38 9 2.0 4.0 0.00 0.18 0.00 85 1345.7
20260510110004 37 9 1.0 7.0 0.00 0.18 0.00 85 1345.7
20260510105525 36 2 1.0 4.0 0.00 0.18 0.00 85 1345.6
20260510105511 36 2 1.0 4.0 0.00 0.18 0.00 77 1013.8
20260510105010 36 3 1.0 4.0 0.00 0.18 0.00 78 1013.8
20260510105004 36 3 2.0 4.0 0.00 0.18 0.00 85 1345.7
20260510104511 35 13 1.0 4.0 0.00 0.18 0.00 78 1013.8
20260510104504 36 11 1.0 4.0 0.00 0.18 0.00 86 1345.6
20260510104010 35 18 1.0 4.0 0.00 0.18 0.00 77 1013.7
20260510104004 35 18 1.0 4.0 0.00 0.18 0.00 85 1345.6
20260510103511 35 0 0.0 3.0 0.00 0.18 0.00 77 1013.6
20260510103504 35 19 0.0 3.0 0.00 0.18 0.00 85 1345.4
20260510103010 35 0 0.0 3.0 0.00 0.18 0.00 77 1013.5
20260510103004 35 19 0.0 1.0 0.00 0.18 0.00 85 1345.4
20260510102511 35 0 0.0 3.0 0.00 0.18 0.00 77 1013.3
20260510102504 35 19 0.0 3.0 0.00 0.18 0.00 85 1345.2
20260510102010 35 0 0.0 1.0 0.00 0.18 0.00 77 1013.2
20260510102004 35 19 0.0 1.0 0.00 0.18 0.00 85 1345.1
20260510101511 35 0 0.0 1.0 0.00 0.18 0.00 77 1013.0
20260510101504 35 19 0.0 3.0 0.00 0.18 0.00 85 1344.9
20260510101004 35 0 0.0 0.0 0.00 0.18 0.00 85 1344.8
20260510100511 35 0 0.0 0.0 0.00 0.18 0.00 77 1012.9
20260510100504 35 0 0.0 0.0 0.00 0.18 0.00 85 1344.7
20260510100010 35 0 0.0 0.0 0.00 0.18 0.00 75 1012.8
20260510100004 35 0 0.0 0.0 0.00 0.18 0.00 84 1344.6
20260510095510 35 0 0.0 0.0 0.00 0.18 0.00 75 1012.8
20260510095504 35 0 0.0 0.0 0.00 0.18 0.00 84 1344.6
20260510095011 35 0 0.0 0.0 0.00 0.18 0.00 75 1012.7
20260510095004 35 0 0.0 0.0 0.00 0.18 0.00 84 1344.5
20260510094526 36 0 0.0 0.0 0.00 0.18 0.00 84 1344.4
20260510094510 35 0 0.0 0.0 0.00 0.18 0.00 75 1012.6
20260510094004 36 0 0.0 0.0 0.00 0.18 0.00 84 1344.1
20260510093504 36 0 0.0 0.0 0.00 0.18 0.00 83 1344.0
20260510093010 36 0 0.0 0.0 0.00 0.18 0.00 74 1012.3
20260510093004 36 0 0.0 0.0 0.00 0.18 0.00 83 1343.8
20260510092511 36 0 0.0 0.0 0.00 0.18 0.00 74 1012.1
20260510092504 36 0 0.0 0.0 0.00 0.18 0.00 83 1343.6
20260510092004 36 0 0.0 0.0 0.00 0.18 0.00 83 1343.4
20260510091510 36 0 0.0 0.0 0.00 0.18 0.00 74 1012.0
20260510091504 37 0 0.0 0.0 0.00 0.18 0.00 83 1343.4
20260510091011 37 0 0.0 0.0 0.00 0.18 0.00 74 1011.7
20260510091004 37 0 0.0 0.0 0.00 0.18 0.00 83 1343.1
20260510090510 37 0 0.0 0.0 0.00 0.18 0.00 73 1011.6
20260510090504 37 0 0.0 0.0 0.00 0.18 0.00 82 1343.1
20260510090011 37 0 0.0 0.0 0.00 0.18 0.00 73 1011.5
20260510090004 37 0 0.0 0.0 0.00 0.18 0.00 82 1343.1
20260510085510 37 0 0.0 0.0 0.00 0.18 0.00 73 1011.6
20260510085504 37 0 0.0 0.0 0.00 0.18 0.00 82 1342.9
20260510085011 38 0 0.0 0.0 0.00 0.18 0.00 73 1011.5
20260510085004 38 0 0.0 0.0 0.00 0.18 0.00 82 1342.8
20260510084504 38 0 0.0 0.0 0.00 0.18 0.00 82 1342.7
20260510084011 38 0 0.0 0.0 0.00 0.18 0.00 73 1011.1
20260510084004 38 0 0.0 0.0 0.00 0.18 0.00 81 1342.4
20260510083510 38 0 0.0 0.0 0.00 0.18 0.00 71 1011.0
20260510083504 38 0 0.0 0.0 0.00 0.18 0.00 81 1342.4
20260510083010 38 0 0.0 0.0 0.00 0.18 0.00 71 1011.0
20260510083004 38 0 0.0 0.0 0.00 0.18 0.00 81 1342.2
20260510082511 39 0 0.0 0.0 0.00 0.18 0.00 71 1010.9
20260510082504 39 0 0.0 0.0 0.00 0.18 0.00 81 1342.1
20260510082010 39 0 0.0 0.0 0.00 0.18 0.00 71 1010.8
20260510082004 39 0 0.0 0.0 0.00 0.18 0.00 81 1342.0
20260510081510 39 0 0.0 0.0 0.00 0.18 0.00 71 1010.8
20260510081504 39 0 0.0 0.0 0.00 0.18 0.00 81 1341.9
20260510081004 39 0 0.0 0.0 0.00 0.18 0.00 80 1341.8
20260510080511 40 0 0.0 0.0 0.00 0.18 0.00 70 1010.9
20260510080504 40 0 0.0 0.0 0.00 0.18 0.00 80 1341.9
20260510080010 40 0 0.0 0.0 0.00 0.18 0.00 70 1010.8
20260510080004 40 0 0.0 0.0 0.00 0.18 0.00 80 1341.8
20260510075525 40 0 0.0 0.0 0.00 0.18 0.00 80 1342.0
20260510075011 40 0 0.0 0.0 0.00 0.18 0.00 70 1010.7
20260510075004 40 0 0.0 0.0 0.00 0.18 0.00 80 1341.7
20260510074510 41 0 0.0 0.0 0.00 0.18 0.00 70 1010.6
20260510074504 41 0 0.0 0.0 0.00 0.18 0.00 80 1341.6
20260510074025 41 0 0.0 0.0 0.00 0.18 0.00 79 1341.5
20260510074011 41 0 0.0 0.0 0.00 0.18 0.00 69 1010.5
20260510073510 41 0 0.0 0.0 0.00 0.18 0.00 69 1010.5
20260510073504 41 0 0.0 0.0 0.00 0.18 0.00 79 1341.5
20260510073010 41 0 0.0 0.0 0.00 0.18 0.00 69 1010.5
20260510073005 41 0 0.0 0.0 0.00 0.18 0.00 79 1341.4
20260510072510 41 0 0.0 0.0 0.00 0.18 0.00 69 1010.4
20260510072504 42 0 0.0 0.0 0.00 0.18 0.00 79 1341.3
20260510072004 42 0 0.0 0.0 0.00 0.18 0.00 78 1341.2
20260510071511 42 0 0.0 0.0 0.00 0.18 0.00 67 1010.3
20260510071504 42 0 0.0 0.0 0.00 0.18 0.00 78 1341.1
20260510071010 42 0 0.0 0.0 0.00 0.18 0.00 67 1010.3
20260510071004 42 0 0.0 0.0 0.00 0.18 0.00 78 1341.2
20260510070504 42 0 0.0 0.0 0.00 0.18 0.00 77 1341.2
20260510070004 43 21 0.0 0.0 0.00 0.18 0.00 77 1341.1
20260510065510 43 0 0.0 3.0 0.00 0.18 0.00 66 1010.3
20260510065504 43 21 0.0 3.0 0.00 0.18 0.00 77 1341.1
20260510065011 43 0 0.0 3.0 0.00 0.18 0.00 66 1010.2
20260510065004 43 22 1.0 3.0 0.00 0.18 0.00 77 1341.1
20260510064504 43 22 1.0 3.0 0.00 0.18 0.00 77 1341.0
20260510064010 44 0 0.0 4.0 0.00 0.18 0.00 66 1010.1
20260510064004 44 22 1.0 4.0 0.00 0.18 0.00 77 1340.9
20260510063510 44 0 0.0 4.0 0.00 0.18 0.00 65 1010.0
20260510063504 44 21 1.0 4.0 0.00 0.18 0.00 75 1340.8
20260510063025 44 20 0.0 3.0 0.00 0.18 0.00 75 1340.7
20260510063010 44 0 0.0 4.0 0.00 0.18 0.00 65 1010.0
20260510062511 44 0 0.0 3.0 0.00 0.18 0.00 65 1010.0
20260510062504 44 19 0.0 0.0 0.00 0.18 0.00 75 1340.9
20260510062010 44 19 1.0 3.0 0.00 0.18 0.00 65 1010.1
20260510062004 44 19 1.0 3.0 0.00 0.18 0.00 75 1340.9
20260510061510 44 19 1.0 5.0 0.00 0.18 0.00 65 1010.1
20260510061504 45 19 1.0 3.0 0.00 0.18 0.00 74 1341.0
20260510061010 45 18 1.0 7.0 0.00 0.18 0.00 63 1010.0
20260510061003 45 18 2.0 5.0 0.00 0.18 0.00 74 1340.9
20260510060510 45 14 3.0 7.0 0.00 0.18 0.00 63 1010.0
20260510060504 45 13 3.0 7.0 0.00 0.18 0.00 74 1340.9
20260510060011 45 15 3.0 8.0 0.00 0.18 0.00 63 1010.0
20260510060004 45 15 3.0 7.0 0.00 0.18 0.00 74 1340.8
20260510055510 45 24 3.0 8.0 0.00 0.18 0.00 63 1009.9
20260510055504 45 24 3.0 8.0 0.00 0.18 0.00 74 1340.8
20260510055010 45 27 3.0 7.0 0.00 0.18 0.00 62 1009.7
20260510055004 45 26 3.0 7.0 0.00 0.18 0.00 73 1340.7
20260510054510 45 22 3.0 8.0 0.00 0.18 0.00 62 1009.7
20260510054504 46 22 3.0 7.0 0.00 0.18 0.00 73 1340.5
20260510054010 46 21 4.0 8.0 0.00 0.18 0.00 62 1009.6
20260510054003 46 21 4.0 9.0 0.00 0.18 0.00 73 1340.4
20260510053510 46 24 4.0 8.0 0.00 0.18 0.00 61 1009.6
20260510053504 46 23 4.0 11.0 0.00 0.18 0.00 72 1340.4
20260510053010 46 24 3.0 8.0 0.00 0.18 0.00 61 1009.5
20260510053004 46 23 3.0 8.0 0.00 0.18 0.00 72 1340.3
20260510052510 46 19 3.0 7.0 0.00 0.18 0.00 61 1009.4
20260510052504 46 18 2.0 7.0 0.00 0.18 0.00 72 1340.2
20260510052010 46 19 1.0 7.0 0.00 0.18 0.00 59 1009.4
20260510052004 46 18 2.0 7.0 0.00 0.18 0.00 71 1340.0
20260510051510 47 26 1.0 4.0 0.00 0.18 0.00 59 1009.3
20260510051504 46 26 1.0 4.0 0.00 0.18 0.00 71 1339.8
20260510051010 47 26 1.0 5.0 0.00 0.18 0.00 59 1009.3
20260510051003 47 26 1.0 3.0 0.00 0.18 0.00 71 1339.8
20260510050503 47 25 2.0 5.0 0.00 0.18 0.00 71 1339.6
20260510050004 47 25 2.0 5.0 0.00 0.18 0.00 71 1339.8
20260510045510 47 25 1.0 7.0 0.00 0.18 0.00 61 1009.1
20260510045504 47 24 2.0 4.0 0.00 0.18 0.00 72 1339.6
20260510045011 47 25 3.0 7.0 0.00 0.18 0.00 61 1009.0
20260510045004 47 24 2.0 7.0 0.00 0.18 0.00 72 1339.4
20260510044510 47 27 3.0 8.0 0.00 0.18 0.00 61 1008.9
20260510044504 47 26 3.0 7.0 0.00 0.18 0.00 72 1339.2
20260510044011 47 29 3.0 8.0 0.00 0.18 0.00 62 1008.8
20260510044004 48 29 2.0 8.0 0.00 0.18 0.00 72 1339.2
20260510043510 48 30 3.0 4.0 0.00 0.18 0.00 62 1008.7
20260510043505 48 30 2.0 5.0 0.00 0.18 0.00 73 1339.1
20260510043011 48 30 3.0 9.0 0.00 0.18 0.00 62 1008.8
20260510043004 48 30 2.0 4.0 0.00 0.18 0.00 73 1338.9
20260510042510 48 26 3.0 9.0 0.00 0.18 0.00 61 1008.6
20260510042504 48 26 2.0 11.0 0.00 0.18 0.00 72 1338.9
20260510042010 48 24 3.0 7.0 0.00 0.18 0.00 61 1008.6
20260510042003 48 24 2.0 7.0 0.00 0.18 0.00 72 1338.8
20260510041510 48 25 3.0 4.0 0.00 0.18 0.00 61 1008.5
20260510041504 48 24 2.0 4.0 0.00 0.18 0.00 72 1338.6
20260510041010 49 26 1.0 4.0 0.00 0.18 0.00 61 1008.3
20260510041004 49 25 1.0 4.0 0.00 0.18 0.00 72 1338.3
20260510040504 49 25 0.0 1.0 0.00 0.18 0.00 71 1338.0
20260510040012 49 0 0.0 4.0 0.00 0.18 0.00 59 1007.9
20260510040006 49 24 0.0 4.0 0.00 0.18 0.00 71 1337.8
20260510035510 49 0 0.0 4.0 0.00 0.18 0.18 59 1007.9
20260510035504 49 24 1.0 3.0 0.00 0.18 0.18 71 1337.9
20260510035026 49 24 1.0 4.0 0.00 0.18 0.18 71 1337.9
20260510035011 49 24 1.0 4.0 0.00 0.18 0.18 59 1008.0
20260510034526 49 24 1.0 4.0 0.00 0.18 0.18 71 1337.8
20260510034510 49 24 1.0 4.0 0.00 0.18 0.18 59 1007.9
20260510034004 49 24 1.0 4.0 0.00 0.18 0.18 71 1338.0
20260510033510 49 24 1.0 4.0 0.00 0.18 0.18 59 1007.8
20260510033503 50 24 1.0 4.0 0.00 0.18 0.18 71 1337.7
20260510033004 50 24 1.0 4.0 0.00 0.18 0.18 71 1337.6
20260510032525 50 24 1.0 4.0 0.00 0.18 0.18 71 1337.7
20260510032510 50 24 1.0 4.0 0.00 0.18 0.18 59 1007.8
20260510032010 50 24 1.0 4.0 0.00 0.18 0.18 59 1007.6
20260510032003 50 24 1.0 4.0 0.00 0.18 0.18 71 1337.5
20260510031510 50 23 1.0 5.0 0.00 0.18 0.18 59 1007.3
20260510031503 50 22 1.0 4.0 0.00 0.18 0.18 71 1337.2
20260510031025 51 20 2.0 5.0 0.00 0.18 0.18 72 1336.9
20260510030511 51 20 1.0 4.0 0.00 0.18 0.18 61 1007.5
20260510030503 51 19 1.0 4.0 0.00 0.18 0.18 72 1337.4
20260510030025 51 19 1.0 4.0 0.00 0.18 0.18 71 1337.0
20260510030011 51 0 0.0 4.0 0.00 0.18 0.18 59 1007.1
20260510025510 51 0 0.0 4.0 0.00 0.18 0.18 59 1007.0
20260510025504 52 19 0.0 4.0 0.00 0.18 0.18 71 1336.8
20260510025010 52 0 0.0 3.0 0.00 0.18 0.18 59 1007.0
20260510025003 52 19 0.0 3.0 0.00 0.18 0.18 71 1336.8
20260510024510 52 0 0.0 1.0 0.00 0.18 0.18 59 1006.9
20260510024504 52 19 0.0 1.0 0.00 0.18 0.18 71 1336.6
20260510024010 52 0 0.0 1.0 0.00 0.18 0.18 59 1006.9
20260510024004 52 19 0.0 1.0 0.00 0.18 0.18 71 1336.7
20260510023525 53 19 0.0 1.0 0.00 0.18 0.18 71 1336.7
20260510023510 53 0 0.0 1.0 0.00 0.18 0.18 59 1007.0
20260510023010 53 19 1.0 4.0 0.00 0.18 0.18 59 1006.9
20260510023004 53 19 0.0 1.0 0.00 0.18 0.18 71 1336.7
20260510022525 53 19 1.0 3.0 0.00 0.18 0.18 71 1336.6
20260510022510 53 20 1.0 7.0 0.00 0.18 0.18 59 1006.9
20260510022011 53 21 1.0 7.0 0.00 0.18 0.18 59 1007.0
20260510022003 53 20 2.0 7.0 0.00 0.18 0.18 71 1336.8
20260510021524 53 23 2.0 5.0 0.00 0.18 0.18 71 1336.2
20260510021010 53 25 3.0 8.0 0.00 0.18 0.18 59 1006.3
20260510021003 53 24 3.0 11.0 0.00 0.18 0.18 71 1335.7
20260510020524 53 25 2.0 8.0 0.00 0.18 0.18 71 1335.5
20260510020510 53 26 1.0 7.0 0.00 0.18 0.18 59 1006.1
20260510020024 54 25 2.0 5.0 0.00 0.18 0.18 71 1335.5
20260510015510 54 12 3.0 9.0 0.00 0.18 0.18 59 1006.0
20260510015504 54 11 3.0 5.0 0.00 0.18 0.18 71 1335.4
20260510015010 54 2 4.0 9.0 0.00 0.18 0.18 59 1005.9
20260510015003 54 1 4.0 11.0 0.00 0.18 0.18 71 1335.4
20260510014503 54 360 4.0 8.0 0.00 0.18 0.18 71 1335.3
20260510014003 54 360 3.0 8.0 0.00 0.18 0.18 71 1335.4
20260510013503 54 360 4.0 12.0 0.00 0.18 0.18 71 1335.1
20260510013004 55 360 4.0 13.0 0.00 0.18 0.18 71 1334.7
20260510012509 55 1 4.0 8.0 0.00 0.18 0.18 62 1005.3
20260510012504 55 360 3.0 8.0 0.00 0.18 0.18 72 1334.5
20260510012010 55 1 4.0 13.0 0.00 0.18 0.18 63 1005.3
20260510012004 55 360 4.0 11.0 0.00 0.18 0.18 74 1334.4
20260510011509 55 1 4.0 13.0 0.00 0.18 0.18 65 1005.2
20260510011504 55 360 4.0 13.0 0.00 0.18 0.18 75 1334.3
20260510011010 55 1 3.0 8.0 0.00 0.18 0.18 66 1005.0
20260510011003 55 360 3.0 11.0 0.00 0.18 0.18 77 1334.2
20260510010510 56 1 1.0 3.0 0.00 0.18 0.18 69 1005.0
20260510010504 56 360 1.0 3.0 0.00 0.18 0.18 79 1334.1
20260510010011 56 0 0.0 3.0 0.00 0.18 0.18 71 1004.7
20260510010004 57 360 0.0 3.0 0.00 0.18 0.18 81 1333.8
20260510005524 57 360 0.0 1.0 0.00 0.18 0.18 81 1333.5
20260510005510 57 0 0.0 1.0 0.00 0.18 0.18 71 1004.6
20260510005024 57 360 0.0 1.0 0.00 0.18 0.18 81 1333.6
20260510005010 57 0 0.0 1.0 0.00 0.18 0.18 71 1004.5
20260510004524 57 360 1.0 1.0 0.00 0.18 0.18 81 1333.5
20260510004510 57 1 1.0 5.0 0.00 0.18 0.18 71 1004.5
20260510004010 57 1 3.0 7.0 0.00 0.18 0.18 73 1004.5
20260510004003 57 360 2.0 5.0 0.00 0.18 0.18 82 1333.4
20260510003510 57 1 4.0 15.0 0.00 0.18 0.18 73 1004.4
20260510003504 57 360 4.0 7.0 0.00 0.18 0.18 81 1333.3
20260510003024 57 360 3.0 15.0 0.00 0.18 0.18 81 1333.3
20260510002503 58 360 1.0 5.0 0.00 0.18 0.18 81 1333.1
20260510002010 58 0 0.0 3.0 0.00 0.18 0.18 71 1003.7
20260510002004 58 360 0.0 0.0 0.00 0.18 0.18 81 1332.6
20260510001510 58 0 0.0 3.0 0.00 0.18 0.18 71 1003.6
20260510001504 58 358 0.0 3.0 0.00 0.18 0.18 81 1332.4
20260510001010 58 0 0.0 3.0 0.00 0.18 0.18 71 1003.6
20260510001003 58 301 0.0 1.0 0.00 0.18 0.18 81 1332.3
20260510000503 58 310 0.0 3.0 0.00 0.18 0.18 81 1332.1
20260510000024 58 264 0.0 0.0 0.00 0.18 0.18 81 1332.1
20260509235510 58 243 1.0 4.0 0.00 0.18 0.18 71 1003.4
20260509235503 58 246 1.0 3.0 0.00 0.18 0.18 81 1332.0
20260509235010 58 236 1.0 4.0 0.00 0.18 0.18 71 1003.3
20260509235003 58 240 1.0 4.0 0.00 0.18 0.18 81 1332.0
20260509234509 58 235 1.0 5.0 0.00 0.18 0.18 71 1003.2
20260509234503 58 241 1.0 3.0 0.00 0.18 0.18 81 1331.9
20260509234003 58 243 2.0 5.0 0.00 0.18 0.18 81 1331.9
20260509233511 58 247 1.0 4.0 0.00 0.18 0.18 70 1003.2
20260509233503 58 254 2.0 4.0 0.00 0.18 0.18 80 1331.8
20260509233024 58 265 2.0 4.0 0.00 0.18 0.18 80 1331.7
20260509233010 58 264 3.0 5.0 0.00 0.18 0.18 70 1003.2
20260509232510 58 232 4.0 8.0 0.00 0.18 0.18 70 1003.2
20260509232503 58 229 4.0 5.0 0.00 0.18 0.18 80 1331.6
20260509232010 58 220 4.0 8.0 0.00 0.18 0.18 70 1003.0
20260509232004 58 220 4.0 8.0 0.00 0.18 0.18 80 1331.6
20260509231503 58 217 4.0 7.0 0.00 0.18 0.18 80 1331.7
20260509231024 58 216 3.0 8.0 0.00 0.18 0.18 80 1331.6
20260509231010 58 216 4.0 8.0 0.00 0.18 0.18 70 1003.1
20260509230503 59 215 3.0 7.0 0.00 0.18 0.18 79 1331.6
20260509230010 59 216 3.0 7.0 0.00 0.18 0.18 69 1002.9
20260509230003 59 215 3.0 7.0 0.00 0.18 0.18 79 1331.5
20260509225509 59 217 3.0 4.0 0.00 0.18 0.18 67 1002.8
20260509225503 59 217 2.0 4.0 0.00 0.18 0.18 78 1331.4
20260509225024 59 217 3.0 4.0 0.00 0.18 0.18 77 1331.2
20260509224510 59 216 3.0 7.0 0.00 0.18 0.18 66 1002.5
20260509224503 60 216 3.0 7.0 0.00 0.18 0.18 77 1331.1
20260509224009 60 216 3.0 7.0 0.00 0.18 0.18 66 1002.3
20260509224004 60 216 3.0 7.0 0.00 0.18 0.18 77 1331.0
20260509223510 60 214 3.0 7.0 0.00 0.18 0.18 66 1002.2
20260509223503 60 214 3.0 5.0 0.00 0.18 0.18 77 1330.6
20260509223024 60 207 3.0 7.0 0.00 0.18 0.18 77 1330.5
20260509223011 60 207 4.0 8.0 0.00 0.18 0.18 66 1002.2
20260509222509 60 197 4.0 8.0 0.00 0.18 0.18 66 1002.1
20260509222503 60 197 4.0 8.0 0.00 0.18 0.18 77 1330.4
20260509222010 59 201 4.0 9.0 0.00 0.18 0.18 66 1002.0
20260509222004 59 201 4.0 8.0 0.00 0.18 0.18 77 1330.4
20260509221509 59 210 4.0 9.0 0.00 0.18 0.18 66 1002.0
20260509221503 59 210 3.0 9.0 0.00 0.18 0.18 77 1330.3
20260509221010 59 217 5.0 12.0 0.00 0.18 0.18 66 1002.0
20260509221003 59 216 5.0 7.0 0.00 0.18 0.18 77 1330.4
20260509220503 59 221 5.0 11.0 0.00 0.18 0.18 77 1330.1
20260509220010 58 217 4.0 9.0 0.00 0.18 0.18 66 1001.9
20260509220003 59 216 4.0 8.0 0.00 0.18 0.18 77 1330.2
20260509215510 58 207 4.0 9.0 0.00 0.18 0.18 66 1001.9
20260509215503 58 206 4.0 9.0 0.00 0.18 0.18 77 1330.0
20260509215010 58 212 7.0 15.0 0.00 0.18 0.18 66 1001.8
20260509215003 58 210 5.0 9.0 0.00 0.18 0.18 77 1330.0
20260509214510 58 217 7.0 15.0 0.00 0.18 0.18 66 1002.0
20260509214503 58 216 7.0 13.0 0.00 0.18 0.18 77 1330.1
20260509214010 58 217 5.0 11.0 0.00 0.18 0.18 67 1002.0
20260509214003 58 216 5.0 12.0 0.00 0.18 0.18 78 1330.1
20260509213509 58 219 4.0 9.0 0.00 0.18 0.18 69 1002.0
20260509213504 58 218 4.0 9.0 0.00 0.18 0.18 79 1330.2
20260509213025 57 219 4.0 8.0 0.01 0.18 0.18 80 1330.6
20260509213010 57 222 4.0 8.0 0.01 0.18 0.18 70 1002.2
20260509212510 56 278 3.0 8.0 0.02 0.18 0.18 71 1002.2
20260509212503 56 276 3.0 9.0 0.02 0.18 0.18 81 1330.4
20260509212024 56 340 2.0 5.0 0.02 0.18 0.18 82 1330.5
20260509212010 56 338 3.0 5.0 0.02 0.18 0.18 73 1002.2
20260509211510 55 343 3.0 7.0 0.15 0.18 0.18 73 1002.3
20260509211503 55 344 2.0 5.0 0.15 0.18 0.18 82 1330.7
20260509211003 55 349 2.0 7.0 0.18 0.18 0.18 82 1330.6
20260509210524 55 346 2.0 8.0 0.18 0.18 0.18 83 1330.6
20260509210510 54 349 3.0 8.0 0.18 0.18 0.18 74 1002.3
20260509210024 54 333 2.0 7.0 0.18 0.18 0.18 83 1330.7
20260509210010 54 340 3.0 8.0 0.18 0.18 0.18 74 1002.4
20260509205509 54 344 3.0 8.0 0.18 0.18 0.18 75 1002.4
20260509205503 54 348 3.0 9.0 0.18 0.18 0.18 84 1330.7
20260509205024 54 336 3.0 7.0 0.18 0.18 0.18 84 1330.7
20260509204504 53 316 2.0 8.0 0.18 0.18 0.18 85 1330.8
20260509204009 53 354 3.0 8.0 0.18 0.18 0.18 75 1002.6
20260509204003 53 350 2.0 4.0 0.18 0.18 0.18 84 1330.8
20260509203524 53 299 4.0 8.0 0.18 0.18 0.18 83 1330.8
20260509203510 53 307 4.0 13.0 0.18 0.18 0.18 74 1002.4
20260509203010 54 307 7.0 16.0 0.17 0.17 0.17 73 1002.7
20260509203003 54 308 6.0 13.0 0.17 0.17 0.17 82 1331.1
20260509202524 56 349 8.0 19.0 0.17 0.17 0.17 81 1331.2
20260509202510 56 350 9.0 21.0 0.17 0.17 0.17 71 1002.9
20260509202011 58 359 9.0 28.0 0.15 0.15 0.15 70 1002.8
20260509202003 58 360 10.0 21.0 0.16 0.16 0.16 79 1331.1
20260509201503 61 341 8.0 28.0 0.03 0.03 0.03 78 1331.5
20260509201003 61 282 6.0 15.0 0.00 0.00 0.00 77 1330.6
20260509200503 61 254 6.0 19.0 0.00 0.00 0.00 75 1329.9
20260509200010 61 225 5.0 15.0 0.00 0.00 0.00 63 1001.7
20260509200004 61 221 6.0 15.0 0.00 0.00 0.00 74 1329.9
20260509195525 61 230 5.0 13.0 0.00 0.00 0.00 74 1329.8
20260509195509 61 231 5.0 15.0 0.00 0.00 0.00 63 1001.7
20260509195024 61 326 5.0 15.0 0.00 0.00 0.00 74 1329.7
20260509195009 61 324 5.0 24.0 0.00 0.00 0.00 63 1001.6
20260509194510 61 268 5.0 24.0 0.00 0.00 0.00 63 1001.7
20260509194503 61 252 5.0 20.0 0.00 0.00 0.00 74 1329.7
20260509194011 61 278 5.0 20.0 0.00 0.00 0.00 63 1001.6
20260509194003 61 279 5.0 16.0 0.00 0.00 0.00 74 1329.6
20260509193509 61 262 8.0 20.0 0.00 0.00 0.00 63 1001.7
20260509193503 61 264 7.0 20.0 0.00 0.00 0.00 74 1329.7
20260509193009 61 268 11.0 21.0 0.00 0.00 0.00 65 1001.8
20260509193004 61 275 10.0 17.0 0.00 0.00 0.00 74 1329.9
20260509192510 62 351 12.0 24.0 0.00 0.00 0.00 63 1001.6
20260509192503 62 353 12.0 20.0 0.00 0.00 0.00 74 1329.7
20260509192025 62 358 11.0 29.0 0.00 0.00 0.00 73 1329.6
20260509191524 62 360 7.0 21.0 0.00 0.00 0.00 73 1329.8
20260509191509 62 1 7.0 21.0 0.00 0.00 0.00 62 1001.7
20260509191003 62 360 7.0 12.0 0.00 0.00 0.00 73 1330.1
20260509190510 62 1 11.0 24.0 0.00 0.00 0.00 62 1002.0
20260509190503 62 360 10.0 20.0 0.00 0.00 0.00 73 1330.3
20260509190010 62 1 11.0 24.0 0.00 0.00 0.00 62 1001.9
20260509190003 62 360 10.0 29.0 0.00 0.00 0.00 73 1330.1
20260509185510 62 1 11.0 20.0 0.00 0.00 0.00 62 1002.0
20260509185503 62 360 10.0 20.0 0.00 0.00 0.00 74 1330.2
20260509185010 62 1 11.0 20.0 0.00 0.00 0.00 65 1001.8
20260509185003 62 360 11.0 21.0 0.00 0.00 0.00 75 1330.0
20260509184525 62 349 12.0 20.0 0.00 0.00 0.00 77 1330.0
20260509184509 62 346 12.0 21.0 0.00 0.00 0.00 66 1001.7
20260509184010 62 232 12.0 21.0 0.00 0.00 0.00 66 1001.9
20260509184003 62 226 11.0 21.0 0.00 0.00 0.00 77 1330.2
20260509183509 62 212 12.0 21.0 0.00 0.00 0.00 65 1001.9
20260509183503 62 212 11.0 19.0 0.00 0.00 0.00 75 1330.1
20260509183010 62 213 11.0 21.0 0.00 0.00 0.00 65 1002.1
20260509183003 62 212 10.0 24.0 0.00 0.00 0.00 75 1330.2
20260509182503 62 211 9.0 27.0 0.00 0.00 0.00 75 1330.4
20260509182010 62 214 9.0 19.0 0.00 0.00 0.00 63 1002.2
20260509182003 62 214 9.0 23.0 0.00 0.00 0.00 74 1330.4
20260509181509 62 216 8.0 17.0 0.00 0.00 0.00 65 1002.2
20260509181503 62 216 8.0 17.0 0.00 0.00 0.00 75 1330.4
20260509181011 62 217 8.0 15.0 0.00 0.00 0.00 66 1002.4
20260509181003 62 216 8.0 15.0 0.00 0.00 0.00 77 1330.5
20260509180509 62 224 7.0 15.0 0.00 0.00 0.00 66 1002.4
20260509180503 62 221 7.0 15.0 0.00 0.00 0.00 77 1330.8
20260509180009 62 224 7.0 16.0 0.00 0.00 0.00 65 1002.6
20260509180003 62 219 7.0 13.0 0.00 0.00 0.00 75 1330.8
20260509175503 62 213 6.0 16.0 0.00 0.00 0.00 74 1331.2
20260509175009 62 349 8.0 23.0 0.00 0.00 0.00 63 1003.0
20260509175003 62 351 7.0 8.0 0.00 0.00 0.00 74 1331.5